Time,TemperatureF,DewpointF,PressureIn,WindDirection,WindDirectionDegrees,WindSpeedMPH,WindSpeedGustMPH,Humidity,HourlyPrecipIn,Conditions,Clouds,dailyrainin,SoftwareType,DateUTC
2013-05-31 00:01:00,65.8,61.5,30.15,East,90,0.0,0.0,86,0.00,,,0.00,WUHU21623XXSP,2013-05-31 04:01:00,
2013-05-31 00:06:00,66.0,61.7,30.16,North,0,0.0,0.0,86,0.00,,,0.00,WUHU21623XXSP,2013-05-31 04:06:00,
2013-05-31 00:11:00,66.0,61.3,30.15,East,90,0.0,0.0,85,0.00,,,0.00,WUHU21623XXSP,2013-05-31 04:11:00,
2013-05-31 00:17:00,66.6,61.9,30.16,North,0,0.0,0.0,85,0.00,,,0.00,WUHU21623XXSP,2013-05-31 04:17:00,
2013-05-31 00:22:00,66.7,61.7,30.16,East,90,0.0,0.0,84,0.00,,,0.00,WUHU21623XXSP,2013-05-31 04:22:00,
2013-05-31 00:27:00,66.7,61.7,30.16,East,90,0.0,0.0,84,0.00,,,0.00,WUHU21623XXSP,2013-05-31 04:27:00,
2013-05-31 00:32:00,66.6,61.6,30.16,East,90,0.0,0.0,84,0.00,,,0.00,WUHU21623XXSP,2013-05-31 04:32:00,
2013-05-31 00:37:00,66.4,61.4,30.16,NNE,22,0.0,0.0,84,0.00,,,0.00,WUHU21623XXSP,2013-05-31 04:37:00,
2013-05-31 00:42:00,66.2,61.2,30.16,East,90,0.0,0.0,84,0.00,,,0.00,WUHU21623XXSP,2013-05-31 04:42:00,
2013-05-31 00:47:00,66.0,61.3,30.16,East,90,0.0,0.0,85,0.00,,,0.00,WUHU21623XXSP,2013-05-31 04:47:00,
2013-05-31 00:52:00,65.8,61.2,30.16,East,90,0.0,0.0,85,0.00,,,0.00,WUHU21623XXSP,2013-05-31 04:52:00,
2013-05-31 00:57:00,65.5,60.8,30.16,East,90,0.0,0.0,85,0.00,,,0.00,WUHU21623XXSP,2013-05-31 04:57:00,
2013-05-31 01:03:00,65.5,60.8,30.16,East,90,0.0,0.0,85,0.00,,,0.00,WUHU21623XXSP,2013-05-31 05:03:00,
2013-05-31 01:08:00,65.5,60.8,30.16,East,90,0.0,0.0,85,0.00,,,0.00,WUHU21623XXSP,2013-05-31 05:08:00,
2013-05-31 01:13:00,65.3,60.7,30.16,East,90,0.0,0.0,85,0.00,,,0.00,WUHU21623XXSP,2013-05-31 05:13:00,
2013-05-31 01:18:00,65.1,60.8,30.17,East,90,0.0,0.0,86,0.00,,,0.00,WUHU21623XXSP,2013-05-31 05:18:00,
2013-05-31 01:23:00,65.1,60.8,30.17,NNE,22,0.0,0.0,86,0.00,,,0.00,WUHU21623XXSP,2013-05-31 05:23:00,
2013-05-31 01:28:00,64.9,60.7,30.17,NNE,22,0.0,0.0,86,0.00,,,0.00,WUHU21623XXSP,2013-05-31 05:28:00,
2013-05-31 01:33:00,64.9,60.7,30.17,East,90,0.0,0.0,86,0.00,,,0.00,WUHU21623XXSP,2013-05-31 05:33:00,
2013-05-31 01:38:00,64.8,60.5,30.16,East,90,0.0,0.0,86,0.00,,,0.00,WUHU21623XXSP,2013-05-31 05:38:00,
2013-05-31 01:43:00,64.8,60.5,30.16,East,90,0.0,0.0,86,0.00,,,0.00,WUHU21623XXSP,2013-05-31 05:43:00,
2013-05-31 01:48:00,64.6,60.3,30.15,East,90,0.0,0.0,86,0.00,,,0.00,WUHU21623XXSP,2013-05-31 05:48:00,
2013-05-31 01:53:00,64.6,60.3,30.15,East,90,0.0,0.0,86,0.00,,,0.00,WUHU21623XXSP,2013-05-31 05:53:00,
2013-05-31 01:59:00,64.6,60.3,30.16,East,90,0.0,0.0,86,0.00,,,0.00,WUHU21623XXSP,2013-05-31 05:59:00,
2013-05-31 02:04:00,64.6,60.3,30.15,East,90,0.0,0.0,86,0.00,,,0.00,WUHU21623XXSP,2013-05-31 06:04:00,
2013-05-31 02:09:00,64.2,60.0,30.15,East,90,0.0,0.0,86,0.00,,,0.00,WUHU21623XXSP,2013-05-31 06:09:00,
2013-05-31 02:14:00,64.2,60.0,30.16,East,90,0.0,0.0,86,0.00,,,0.00,WUHU21623XXSP,2013-05-31 06:14:00,
2013-05-31 02:19:00,64.2,60.0,30.15,East,90,0.0,0.0,86,0.00,,,0.00,WUHU21623XXSP,2013-05-31 06:19:00,
2013-05-31 02:25:00,64.2,60.0,30.15,NNE,22,0.0,0.0,86,0.00,,,0.00,WUHU21623XXSP,2013-05-31 06:25:00,
2013-05-31 02:30:00,64.0,59.8,30.15,East,90,0.0,0.0,86,0.00,,,0.00,WUHU21623XXSP,2013-05-31 06:30:00,
2013-05-31 02:36:00,64.0,60.1,30.15,East,90,0.0,0.0,87,0.00,,,0.00,WUHU21623XXSP,2013-05-31 06:36:00,
2013-05-31 02:41:00,63.7,59.8,30.15,East,90,0.0,0.0,87,0.00,,,0.00,WUHU21623XXSP,2013-05-31 06:41:00,
2013-05-31 02:46:00,63.7,59.8,30.15,East,90,0.0,0.0,87,0.00,,,0.00,WUHU21623XXSP,2013-05-31 06:46:00,
2013-05-31 02:51:00,63.5,59.6,30.15,East,90,0.0,0.0,87,0.00,,,0.00,WUHU21623XXSP,2013-05-31 06:51:00,
2013-05-31 02:56:00,63.5,59.6,30.15,East,90,0.0,0.0,87,0.00,,,0.00,WUHU21623XXSP,2013-05-31 06:56:00,
2013-05-31 03:01:00,63.5,59.6,30.14,East,90,0.0,0.0,87,0.00,,,0.00,WUHU21623XXSP,2013-05-31 07:01:00,
2013-05-31 03:06:00,63.3,59.4,30.14,East,90,0.0,0.0,87,0.00,,,0.00,WUHU21623XXSP,2013-05-31 07:06:00,
2013-05-31 03:11:00,63.3,59.4,30.14,East,90,0.0,0.0,87,0.00,,,0.00,WUHU21623XXSP,2013-05-31 07:11:00,
2013-05-31 03:16:00,63.3,59.4,30.14,East,90,0.0,0.0,87,0.00,,,0.00,WUHU21623XXSP,2013-05-31 07:16:00,
2013-05-31 03:21:00,63.3,59.4,30.14,East,90,0.0,0.0,87,0.00,,,0.00,WUHU21623XXSP,2013-05-31 07:21:00,
2013-05-31 03:26:00,63.3,59.4,30.14,East,90,0.0,0.0,87,0.00,,,0.00,WUHU21623XXSP,2013-05-31 07:26:00,
2013-05-31 03:31:00,63.1,59.2,30.14,East,90,0.0,0.0,87,0.00,,,0.00,WUHU21623XXSP,2013-05-31 07:31:00,
2013-05-31 03:37:00,63.1,59.2,30.14,East,90,0.0,0.0,87,0.00,,,0.00,WUHU21623XXSP,2013-05-31 07:37:00,
2013-05-31 03:42:00,63.0,59.1,30.14,East,90,0.0,0.0,87,0.00,,,0.00,WUHU21623XXSP,2013-05-31 07:42:00,
2013-05-31 03:47:00,62.8,58.9,30.14,East,90,0.0,0.0,87,0.00,,,0.00,WUHU21623XXSP,2013-05-31 07:47:00,
2013-05-31 03:52:00,62.6,58.7,30.13,East,90,0.0,0.0,87,0.00,,,0.00,WUHU21623XXSP,2013-05-31 07:52:00,
2013-05-31 03:57:00,62.4,58.9,30.13,East,90,0.0,0.0,88,0.00,,,0.00,WUHU21623XXSP,2013-05-31 07:57:00,
2013-05-31 04:02:00,62.4,58.9,30.13,East,90,0.0,0.0,88,0.00,,,0.00,WUHU21623XXSP,2013-05-31 08:02:00,
2013-05-31 04:08:00,62.4,58.9,30.13,East,90,0.0,0.0,88,0.00,,,0.00,WUHU21623XXSP,2013-05-31 08:08:00,
2013-05-31 04:13:00,62.4,58.9,30.13,East,90,0.0,0.0,88,0.00,,,0.00,WUHU21623XXSP,2013-05-31 08:13:00,
2013-05-31 04:18:00,62.4,58.9,30.12,East,90,0.0,0.0,88,0.00,,,0.00,WUHU21623XXSP,2013-05-31 08:18:00,
2013-05-31 04:23:00,62.2,58.7,30.13,East,90,0.0,0.0,88,0.00,,,0.00,WUHU21623XXSP,2013-05-31 08:23:00,
2013-05-31 04:28:00,62.2,58.7,30.13,East,90,0.0,0.0,88,0.00,,,0.00,WUHU21623XXSP,2013-05-31 08:28:00,
2013-05-31 04:33:00,62.2,58.7,30.13,East,90,0.0,0.0,88,0.00,,,0.00,WUHU21623XXSP,2013-05-31 08:33:00,
2013-05-31 04:38:00,62.2,58.7,30.14,North,0,0.0,0.0,88,0.00,,,0.00,WUHU21623XXSP,2013-05-31 08:38:00,
2013-05-31 04:43:00,62.2,58.7,30.14,East,90,0.0,0.0,88,0.00,,,0.00,WUHU21623XXSP,2013-05-31 08:43:00,
2013-05-31 04:48:00,62.2,58.7,30.14,East,90,0.0,0.0,88,0.00,,,0.00,WUHU21623XXSP,2013-05-31 08:48:00,
2013-05-31 04:53:00,62.2,58.7,30.14,East,90,0.0,0.0,88,0.00,,,0.00,WUHU21623XXSP,2013-05-31 08:53:00,
2013-05-31 04:59:00,62.2,58.7,30.14,East,90,0.0,0.0,88,0.00,,,0.00,WUHU21623XXSP,2013-05-31 08:59:00,
2013-05-31 05:04:00,62.2,58.7,30.15,East,90,0.0,0.0,88,0.00,,,0.00,WUHU21623XXSP,2013-05-31 09:04:00,
2013-05-31 05:09:00,62.2,58.7,30.15,East,90,0.0,0.0,88,0.00,,,0.00,WUHU21623XXSP,2013-05-31 09:09:00,
2013-05-31 05:14:00,62.4,58.9,30.15,East,90,0.0,0.0,88,0.00,,,0.00,WUHU21623XXSP,2013-05-31 09:14:00,
2013-05-31 05:19:00,62.4,58.9,30.15,East,90,0.0,0.0,88,0.00,,,0.00,WUHU21623XXSP,2013-05-31 09:19:00,
2013-05-31 05:24:00,62.4,58.9,30.15,East,90,0.0,0.0,88,0.00,,,0.00,WUHU21623XXSP,2013-05-31 09:24:00,
2013-05-31 05:29:00,62.6,59.0,30.15,East,90,0.0,0.0,88,0.00,,,0.00,WUHU21623XXSP,2013-05-31 09:29:00,
2013-05-31 05:34:00,62.4,58.9,30.15,East,90,0.0,0.0,88,0.00,,,0.00,WUHU21623XXSP,2013-05-31 09:34:00,
2013-05-31 05:39:00,62.4,58.9,30.15,East,90,0.0,0.0,88,0.00,,,0.00,WUHU21623XXSP,2013-05-31 09:39:00,
2013-05-31 05:44:00,62.6,59.0,30.15,East,90,0.0,0.0,88,0.00,,,0.00,WUHU21623XXSP,2013-05-31 09:44:00,
2013-05-31 05:50:00,62.6,59.0,30.15,East,90,0.0,0.0,88,0.00,,,0.00,WUHU21623XXSP,2013-05-31 09:50:00,
2013-05-31 05:55:00,62.6,59.0,30.15,East,90,0.0,0.0,88,0.00,,,0.00,WUHU21623XXSP,2013-05-31 09:55:00,
2013-05-31 06:00:00,62.8,59.2,30.15,East,90,0.0,0.0,88,0.00,,,0.00,WUHU21623XXSP,2013-05-31 10:00:00,
2013-05-31 06:05:00,62.8,59.2,30.16,East,90,0.0,0.0,88,0.00,,,0.00,WUHU21623XXSP,2013-05-31 10:05:00,
2013-05-31 06:10:00,62.8,59.2,30.16,East,90,0.0,0.0,88,0.00,,,0.00,WUHU21623XXSP,2013-05-31 10:10:00,
2013-05-31 06:15:00,62.8,59.2,30.16,East,90,0.0,0.0,88,0.00,,,0.00,WUHU21623XXSP,2013-05-31 10:15:00,
2013-05-31 06:20:00,62.8,59.2,30.16,NNE,22,0.0,0.0,88,0.00,,,0.00,WUHU21623XXSP,2013-05-31 10:20:00,
2013-05-31 06:25:00,62.8,59.2,30.16,East,90,0.0,0.0,88,0.00,,,0.00,WUHU21623XXSP,2013-05-31 10:25:00,
2013-05-31 06:30:00,63.0,59.4,30.16,East,90,0.0,0.0,88,0.00,,,0.00,WUHU21623XXSP,2013-05-31 10:30:00,
2013-05-31 06:35:00,63.3,59.8,30.16,East,90,0.0,0.0,88,0.00,,,0.00,WUHU21623XXSP,2013-05-31 10:35:00,
2013-05-31 06:40:00,63.5,59.9,30.16,East,90,0.0,0.0,88,0.00,,,0.00,WUHU21623XXSP,2013-05-31 10:40:00,
2013-05-31 06:46:00,63.5,59.9,30.16,East,90,0.0,0.0,88,0.00,,,0.00,WUHU21623XXSP,2013-05-31 10:46:00,
2013-05-31 06:51:00,63.5,59.9,30.16,East,90,0.0,0.0,88,0.00,,,0.00,WUHU21623XXSP,2013-05-31 10:51:00,
2013-05-31 06:56:00,63.5,59.9,30.16,East,90,0.0,0.0,88,0.00,,,0.00,WUHU21623XXSP,2013-05-31 10:56:00,
2013-05-31 07:01:00,63.5,59.9,30.16,East,90,0.0,0.0,88,0.00,,,0.00,WUHU21623XXSP,2013-05-31 11:01:00,
2013-05-31 07:06:00,63.5,59.9,30.16,East,90,0.0,0.0,88,0.00,,,0.00,WUHU21623XXSP,2013-05-31 11:06:00,
2013-05-31 07:11:00,63.5,59.9,30.17,East,90,0.0,0.0,88,0.00,,,0.00,WUHU21623XXSP,2013-05-31 11:11:00,
2013-05-31 07:16:00,63.5,59.9,30.17,East,90,0.0,0.0,88,0.00,,,0.00,WUHU21623XXSP,2013-05-31 11:16:00,
2013-05-31 07:22:00,63.7,60.1,30.17,East,90,0.0,0.0,88,0.00,,,0.00,WUHU21623XXSP,2013-05-31 11:22:00,
2013-05-31 07:27:00,63.7,60.1,30.17,East,90,0.0,0.0,88,0.00,,,0.00,WUHU21623XXSP,2013-05-31 11:27:00,
2013-05-31 07:32:00,64.0,60.5,30.17,East,90,0.0,0.0,88,0.00,,,0.00,WUHU21623XXSP,2013-05-31 11:32:00,
2013-05-31 07:37:00,64.2,60.7,30.17,East,90,0.0,0.0,88,0.00,,,0.00,WUHU21623XXSP,2013-05-31 11:37:00,
2013-05-31 07:42:00,64.6,61.0,30.17,East,90,0.0,0.0,88,0.00,,,0.00,WUHU21623XXSP,2013-05-31 11:42:00,
2013-05-31 07:47:00,64.8,61.2,30.18,East,90,0.0,0.0,88,0.00,,,0.00,WUHU21623XXSP,2013-05-31 11:47:00,
2013-05-31 07:52:00,65.1,61.5,30.18,East,90,0.0,0.0,88,0.00,,,0.00,WUHU21623XXSP,2013-05-31 11:52:00,
2013-05-31 07:57:00,65.3,61.7,30.18,North,0,0.0,0.0,88,0.00,,,0.00,WUHU21623XXSP,2013-05-31 11:57:00,
2013-05-31 08:03:00,65.7,61.7,30.19,East,90,0.0,0.0,87,0.00,,,0.00,WUHU21623XXSP,2013-05-31 12:03:00,
2013-05-31 08:08:00,66.0,62.0,30.19,East,90,0.0,0.0,87,0.00,,,0.00,WUHU21623XXSP,2013-05-31 12:08:00,
2013-05-31 08:13:00,66.4,62.7,30.19,East,90,0.0,0.0,88,0.00,,,0.00,WUHU21623XXSP,2013-05-31 12:13:00,
2013-05-31 08:18:00,67.5,63.8,30.20,East,90,0.0,0.0,88,0.00,,,0.00,WUHU21623XXSP,2013-05-31 12:18:00,
2013-05-31 08:23:00,68.9,64.8,30.19,North,0,0.0,0.0,87,0.00,,,0.00,WUHU21623XXSP,2013-05-31 12:23:00,
2013-05-31 08:28:00,70.2,66.1,30.19,North,0,0.0,0.0,87,0.00,,,0.00,WUHU21623XXSP,2013-05-31 12:28:00,
2013-05-31 08:33:00,71.2,66.8,30.20,East,90,0.0,0.0,86,0.00,,,0.00,WUHU21623XXSP,2013-05-31 12:33:00,
2013-05-31 08:39:00,72.3,67.2,30.20,North,0,0.0,0.0,84,0.00,,,0.00,WUHU21623XXSP,2013-05-31 12:39:00,
2013-05-31 08:44:00,72.7,66.5,30.20,NNE,22,0.0,0.0,81,0.00,,,0.00,WUHU21623XXSP,2013-05-31 12:44:00,
2013-05-31 08:49:00,73.6,67.1,30.19,East,90,0.0,0.0,80,0.00,,,0.00,WUHU21623XXSP,2013-05-31 12:49:00,
2013-05-31 08:55:00,74.3,67.0,30.19,East,90,0.0,0.0,78,0.00,,,0.00,WUHU21623XXSP,2013-05-31 12:55:00,
2013-05-31 09:00:00,75.4,67.7,30.19,East,90,0.0,0.0,77,0.00,,,0.00,WUHU21623XXSP,2013-05-31 13:00:00,
2013-05-31 09:05:00,75.9,67.4,30.19,South,180,0.0,0.0,75,0.00,,,0.00,WUHU21623XXSP,2013-05-31 13:05:00,
2013-05-31 09:10:00,77.0,67.3,30.18,East,90,0.0,0.0,72,0.00,,,0.00,WUHU21623XXSP,2013-05-31 13:10:00,
2013-05-31 09:15:00,77.4,67.3,30.18,North,0,0.0,0.0,71,0.00,,,0.00,WUHU21623XXSP,2013-05-31 13:15:00,
2013-05-31 09:20:00,77.9,67.7,30.19,East,90,0.0,0.0,71,0.00,,,0.00,WUHU21623XXSP,2013-05-31 13:20:00,
2013-05-31 09:25:00,78.4,68.6,30.19,West,270,0.0,0.0,72,0.00,,,0.00,WUHU21623XXSP,2013-05-31 13:25:00,
2013-05-31 09:30:00,78.1,67.5,30.18,ESE,112,0.0,0.0,70,0.00,,,0.00,WUHU21623XXSP,2013-05-31 13:30:00,
2013-05-31 09:35:00,78.6,67.6,30.18,SSW,202,0.0,0.0,69,0.00,,,0.00,WUHU21623XXSP,2013-05-31 13:35:00,
2013-05-31 09:40:00,78.6,67.1,30.18,East,90,0.0,0.0,68,0.00,,,0.00,WUHU21623XXSP,2013-05-31 13:40:00,
2013-05-31 09:46:00,78.8,67.3,30.18,WNW,292,0.0,0.0,68,0.00,,,0.00,WUHU21623XXSP,2013-05-31 13:46:00,
2013-05-31 09:51:00,79.7,68.2,30.18,West,270,0.0,0.0,68,0.00,,,0.00,WUHU21623XXSP,2013-05-31 13:51:00,
2013-05-31 09:56:00,79.5,67.6,30.18,SSW,202,0.0,0.0,67,0.00,,,0.00,WUHU21623XXSP,2013-05-31 13:56:00,
2013-05-31 10:01:00,79.0,66.6,30.18,ESE,112,0.0,0.0,66,0.00,,,0.00,WUHU21623XXSP,2013-05-31 14:01:00,
2013-05-31 10:06:00,78.6,66.3,30.18,ESE,112,0.0,0.0,66,0.00,,,0.00,WUHU21623XXSP,2013-05-31 14:06:00,
2013-05-31 10:11:00,78.1,65.8,30.19,SSW,202,0.0,0.0,66,0.00,,,0.00,WUHU21623XXSP,2013-05-31 14:11:00,
2013-05-31 10:16:00,77.4,65.5,30.19,WNW,292,0.0,0.0,67,0.00,,,0.00,WUHU21623XXSP,2013-05-31 14:16:00,
2013-05-31 10:21:00,77.2,65.8,30.19,South,180,0.0,0.0,68,0.00,,,0.00,WUHU21623XXSP,2013-05-31 14:21:00,
2013-05-31 10:26:00,77.2,66.3,30.19,WNW,292,0.0,0.0,69,0.00,,,0.00,WUHU21623XXSP,2013-05-31 14:26:00,
2013-05-31 10:31:00,76.5,66.0,30.19,West,270,0.0,0.0,70,0.00,,,0.00,WUHU21623XXSP,2013-05-31 14:31:00,
2013-05-31 10:37:00,76.5,66.4,30.18,SSW,202,0.0,0.0,71,0.00,,,0.00,WUHU21623XXSP,2013-05-31 14:37:00,
2013-05-31 10:42:00,77.5,67.0,30.19,WNW,292,0.0,0.0,70,0.00,,,0.00,WUHU21623XXSP,2013-05-31 14:42:00,
2013-05-31 10:47:00,78.1,67.1,30.19,NNE,22,0.0,0.0,69,0.00,,,0.00,WUHU21623XXSP,2013-05-31 14:47:00,
2013-05-31 10:52:00,79.3,67.4,30.19,East,90,0.0,0.0,67,0.00,,,0.00,WUHU21623XXSP,2013-05-31 14:52:00,
2013-05-31 10:57:00,81.0,68.1,30.19,SSW,202,0.0,0.0,65,0.00,,,0.00,WUHU21623XXSP,2013-05-31 14:57:00,
2013-05-31 11:02:00,80.4,68.0,30.18,SSW,202,0.0,0.0,66,0.00,,,0.00,WUHU21623XXSP,2013-05-31 15:02:00,
2013-05-31 11:07:00,81.0,68.1,30.18,SSW,202,0.0,0.0,65,0.00,,,0.00,WUHU21623XXSP,2013-05-31 15:07:00,
2013-05-31 11:12:00,81.1,68.7,30.18,WNW,292,0.0,0.0,66,0.00,,,0.00,WUHU21623XXSP,2013-05-31 15:12:00,
2013-05-31 11:17:00,82.0,69.9,30.18,East,90,0.0,0.0,67,0.00,,,0.00,WUHU21623XXSP,2013-05-31 15:17:00,
2013-05-31 11:23:00,82.2,68.3,30.18,East,90,0.0,0.0,63,0.00,,,0.00,WUHU21623XXSP,2013-05-31 15:23:00,
2013-05-31 11:28:00,81.7,67.8,30.18,West,270,0.0,0.0,63,0.00,,,0.00,WUHU21623XXSP,2013-05-31 15:28:00,
2013-05-31 11:33:00,79.9,67.5,30.18,WNW,292,0.0,0.0,66,0.00,,,0.00,WUHU21623XXSP,2013-05-31 15:33:00,
2013-05-31 11:38:00,79.0,67.0,30.18,West,270,0.0,0.0,67,0.00,,,0.00,WUHU21623XXSP,2013-05-31 15:38:00,
2013-05-31 11:44:00,79.7,67.7,30.18,NNE,22,0.0,0.0,67,0.00,,,0.00,WUHU21623XXSP,2013-05-31 15:44:00,
2013-05-31 11:50:00,81.3,69.3,30.17,ESE,112,0.0,0.0,67,0.00,,,0.00,WUHU21623XXSP,2013-05-31 15:50:00,
2013-05-31 11:55:00,83.5,69.5,30.17,South,180,0.0,0.0,63,0.00,,,0.00,WUHU21623XXSP,2013-05-31 15:55:00,
2013-05-31 12:00:00,84.0,69.6,30.17,WNW,292,0.0,0.0,62,0.00,,,0.00,WUHU21623XXSP,2013-05-31 16:00:00,
2013-05-31 12:05:00,84.7,69.5,30.17,East,90,0.0,0.0,59,0.00,,,0.00,WUHU21623XXSP,2013-05-31 16:05:00,
2013-05-31 12:10:00,84.9,69.5,30.17,East,90,0.0,0.0,60,0.00,,,0.00,WUHU21623XXSP,2013-05-31 16:10:00,
2013-05-31 12:15:00,85.3,68.8,30.17,East,90,0.0,0.0,58,0.00,,,0.00,WUHU21623XXSP,2013-05-31 16:15:00,
2013-05-31 12:20:00,85.3,69.3,30.17,SSW,202,0.0,0.0,59,0.00,,,0.00,WUHU21623XXSP,2013-05-31 16:20:00,
2013-05-31 12:25:00,85.1,68.7,30.16,South,180,0.0,0.0,58,0.00,,,0.00,WUHU21623XXSP,2013-05-31 16:25:00,
2013-05-31 12:31:00,85.3,67.8,30.16,SSW,202,0.0,0.0,56,0.00,,,0.00,WUHU21623XXSP,2013-05-31 16:31:00,
2013-05-31 12:36:00,84.9,68.0,30.16,East,90,0.0,0.0,57,0.00,,,0.00,WUHU21623XXSP,2013-05-31 16:36:00,
2013-05-31 12:41:00,84.7,68.3,30.16,East,90,0.0,0.0,58,0.00,,,0.00,WUHU21623XXSP,2013-05-31 16:41:00,
2013-05-31 12:46:00,85.8,69.3,30.16,NNE,22,0.0,0.0,58,0.00,,,0.00,WUHU21623XXSP,2013-05-31 16:46:00,
2013-05-31 12:51:00,86.2,68.6,30.15,East,90,0.0,0.0,56,0.00,,,0.00,WUHU21623XXSP,2013-05-31 16:51:00,
2013-05-31 12:56:00,86.2,68.6,30.15,ESE,112,0.0,0.0,56,0.00,,,0.00,WUHU21623XXSP,2013-05-31 16:56:00,
2013-05-31 13:01:00,86.5,67.9,30.15,West,270,0.0,0.0,54,0.00,,,0.00,WUHU21623XXSP,2013-05-31 17:01:00,
2013-05-31 13:06:00,86.2,67.6,30.14,West,270,0.0,0.0,54,0.00,,,0.00,WUHU21623XXSP,2013-05-31 17:06:00,
2013-05-31 13:11:00,86.4,67.7,30.14,SSW,202,0.0,0.0,54,0.00,,,0.00,WUHU21623XXSP,2013-05-31 17:11:00,
2013-05-31 13:16:00,86.5,68.4,30.14,ESE,112,0.0,0.0,55,0.00,,,0.00,WUHU21623XXSP,2013-05-31 17:16:00,
2013-05-31 13:21:00,85.6,67.1,30.13,South,180,0.0,0.0,54,0.00,,,0.00,WUHU21623XXSP,2013-05-31 17:21:00,
2013-05-31 13:26:00,85.8,66.7,30.14,ESE,112,0.0,0.0,53,0.00,,,0.00,WUHU21623XXSP,2013-05-31 17:26:00,
2013-05-31 13:31:00,85.8,67.7,30.13,SSW,202,0.0,0.0,55,0.00,,,0.00,WUHU21623XXSP,2013-05-31 17:31:00,
2013-05-31 13:36:00,85.8,67.2,30.13,West,270,1.2,1.3,54,0.00,,,0.00,WUHU21623XXSP,2013-05-31 17:36:00,
2013-05-31 13:41:00,85.6,67.6,30.13,South,180,1.2,7.4,55,0.00,,,0.00,WUHU21623XXSP,2013-05-31 17:41:00,
2013-05-31 13:46:00,86.5,69.5,30.13,WNW,292,0.0,7.4,57,0.00,,,0.00,WUHU21623XXSP,2013-05-31 17:46:00,
2013-05-31 13:51:00,86.2,67.6,30.12,South,180,1.7,2.4,54,0.00,,,0.00,WUHU21623XXSP,2013-05-31 17:51:00,
2013-05-31 13:56:00,85.8,67.2,30.12,South,180,0.0,5.1,54,0.00,,,0.00,WUHU21623XXSP,2013-05-31 17:56:00,
2013-05-31 14:01:00,84.9,66.4,30.12,West,270,0.0,5.1,54,0.00,,,0.00,WUHU21623XXSP,2013-05-31 18:01:00,
2013-05-31 14:06:00,84.4,68.0,30.12,WNW,292,0.0,3.0,58,0.00,,,0.00,WUHU21623XXSP,2013-05-31 18:06:00,
2013-05-31 14:11:00,85.3,68.8,30.12,East,90,0.0,0.0,58,0.00,,,0.00,WUHU21623XXSP,2013-05-31 18:11:00,
2013-05-31 14:16:00,86.5,67.9,30.12,NNE,22,3.3,3.8,54,0.00,,,0.00,WUHU21623XXSP,2013-05-31 18:16:00,
2013-05-31 14:21:00,85.6,67.6,30.12,West,270,3.3,3.8,55,0.00,,,0.00,WUHU21623XXSP,2013-05-31 18:21:00,
2013-05-31 14:26:00,85.8,68.8,30.12,SSW,202,2.6,3.8,57,0.00,,,0.00,WUHU21623XXSP,2013-05-31 18:26:00,
2013-05-31 14:33:00,86.2,68.6,30.12,West,270,2.9,3.8,56,0.00,,,0.00,WUHU21623XXSP,2013-05-31 18:33:00,
2013-05-31 14:39:00,86.4,67.7,30.12,SSW,202,3.8,4.4,54,0.00,,,0.00,WUHU21623XXSP,2013-05-31 18:39:00,
2013-05-31 14:44:00,84.6,67.7,30.11,West,270,0.0,4.4,57,0.00,,,0.00,WUHU21623XXSP,2013-05-31 18:44:00,
2013-05-31 14:49:00,83.5,67.7,30.11,West,270,0.0,4.4,59,0.00,,,0.00,WUHU21623XXSP,2013-05-31 18:49:00,
2013-05-31 14:54:00,84.4,68.0,30.11,ESE,112,2.1,3.8,58,0.00,,,0.00,WUHU21623XXSP,2013-05-31 18:54:00,
2013-05-31 14:59:00,86.2,68.6,30.11,East,90,0.0,2.4,56,0.00,,,0.00,WUHU21623XXSP,2013-05-31 18:59:00,
2013-05-31 15:04:00,85.8,66.2,30.11,East,90,0.0,3.8,52,0.00,,,0.00,WUHU21623XXSP,2013-05-31 19:04:00,
2013-05-31 15:09:00,85.6,67.6,30.10,North,0,0.0,3.8,55,0.00,,,0.00,WUHU21623XXSP,2013-05-31 19:09:00,
2013-05-31 15:14:00,86.2,68.1,30.10,West,270,1.2,3.8,55,0.00,,,0.00,WUHU21623XXSP,2013-05-31 19:14:00,
2013-05-31 15:19:00,86.5,67.9,30.10,East,90,2.3,3.8,54,0.00,,,0.00,WUHU21623XXSP,2013-05-31 19:19:00,
2013-05-31 15:24:00,86.7,68.1,30.10,West,270,1.7,2.7,54,0.00,,,0.00,WUHU21623XXSP,2013-05-31 19:24:00,
2013-05-31 15:29:00,87.3,67.5,30.10,SSW,202,1.7,3.0,52,0.00,,,0.00,WUHU21623XXSP,2013-05-31 19:29:00,
2013-05-31 15:34:00,86.7,67.0,30.10,SSW,202,2.3,3.0,52,0.00,,,0.00,WUHU21623XXSP,2013-05-31 19:34:00,
2013-05-31 15:39:00,86.2,66.5,30.10,South,180,3.3,3.8,52,0.00,,,0.00,WUHU21623XXSP,2013-05-31 19:39:00,
2013-05-31 15:44:00,85.1,66.6,30.10,West,270,0.0,3.8,54,0.00,,,0.00,WUHU21623XXSP,2013-05-31 19:44:00,
2013-05-31 15:49:00,84.2,66.3,30.10,West,270,0.0,3.8,55,0.00,,,0.00,WUHU21623XXSP,2013-05-31 19:49:00,
2013-05-31 15:54:00,83.1,66.3,30.10,North,0,0.0,0.0,57,0.00,,,0.00,WUHU21623XXSP,2013-05-31 19:54:00,
2013-05-31 15:59:00,83.3,66.4,30.10,West,270,0.0,0.0,57,0.00,,,0.00,WUHU21623XXSP,2013-05-31 19:59:00,
2013-05-31 16:04:00,84.0,67.2,30.10,West,270,0.0,0.0,57,0.00,,,0.00,WUHU21623XXSP,2013-05-31 20:04:00,
2013-05-31 16:09:00,84.4,67.0,30.10,East,90,0.0,0.0,56,0.00,,,0.00,WUHU21623XXSP,2013-05-31 20:09:00,
2013-05-31 16:14:00,84.6,67.7,30.09,South,180,0.0,0.0,57,0.00,,,0.00,WUHU21623XXSP,2013-05-31 20:14:00,
2013-05-31 16:23:00,84.6,67.1,30.09,South,180,0.0,0.0,56,0.00,,,0.00,WUHU21623XXSP,2013-05-31 20:23:00,
2013-05-31 16:28:00,84.7,66.8,30.09,West,270,0.0,0.0,55,0.00,,,0.00,WUHU21623XXSP,2013-05-31 20:28:00,
2013-05-31 16:33:00,84.7,66.8,30.09,West,270,0.0,0.0,55,0.00,,,0.00,WUHU21623XXSP,2013-05-31 20:33:00,
2013-05-31 16:39:00,84.4,66.5,30.09,SSW,202,0.0,0.0,55,0.00,,,0.00,WUHU21623XXSP,2013-05-31 20:39:00,
2013-05-31 16:44:00,84.0,66.1,30.09,South,180,0.0,0.0,55,0.00,,,0.00,WUHU21623XXSP,2013-05-31 20:44:00,
2013-05-31 16:49:00,84.0,66.6,30.08,West,270,0.0,0.0,56,0.00,,,0.00,WUHU21623XXSP,2013-05-31 20:49:00,
2013-05-31 16:54:00,84.0,66.1,30.08,WNW,292,0.0,0.0,55,0.00,,,0.00,WUHU21623XXSP,2013-05-31 20:54:00,
2013-05-31 16:59:00,84.7,66.8,30.08,West,270,0.0,0.0,55,0.00,,,0.00,WUHU21623XXSP,2013-05-31 20:59:00,
2013-05-31 17:04:00,84.2,66.3,30.08,WNW,292,0.0,0.0,55,0.00,,,0.00,WUHU21623XXSP,2013-05-31 21:04:00,
2013-05-31 17:09:00,83.8,67.5,30.08,SSW,202,0.0,0.0,58,0.00,,,0.00,WUHU21623XXSP,2013-05-31 21:09:00,
2013-05-31 17:14:00,83.5,66.6,30.08,South,180,0.0,0.0,57,0.00,,,0.00,WUHU21623XXSP,2013-05-31 21:14:00,
2013-05-31 17:19:00,83.5,66.6,30.08,SSW,202,0.0,0.0,57,0.00,,,0.00,WUHU21623XXSP,2013-05-31 21:19:00,
2013-05-31 17:24:00,83.1,66.3,30.08,WNW,292,0.0,0.0,57,0.00,,,0.00,WUHU21623XXSP,2013-05-31 21:24:00,
2013-05-31 17:29:00,82.8,66.9,30.08,NNE,22,0.0,0.0,59,0.00,,,0.00,WUHU21623XXSP,2013-05-31 21:29:00,
2013-05-31 17:34:00,82.4,67.1,30.08,SSW,202,0.0,0.0,60,0.00,,,0.00,WUHU21623XXSP,2013-05-31 21:34:00,
2013-05-31 17:39:00,82.2,66.9,30.08,West,270,0.0,0.0,60,0.00,,,0.00,WUHU21623XXSP,2013-05-31 21:39:00,
2013-05-31 17:44:00,82.0,67.7,30.08,ESE,112,0.0,0.0,62,0.00,,,0.00,WUHU21623XXSP,2013-05-31 21:44:00,
2013-05-31 17:49:00,81.5,66.7,30.08,SSW,202,0.0,0.0,61,0.00,,,0.00,WUHU21623XXSP,2013-05-31 21:49:00,
2013-05-31 17:54:00,81.1,66.4,30.08,SSW,202,0.0,0.0,61,0.00,,,0.00,WUHU21623XXSP,2013-05-31 21:54:00,
2013-05-31 17:59:00,81.1,66.9,30.08,South,180,0.0,0.0,62,0.00,,,0.00,WUHU21623XXSP,2013-05-31 21:59:00,
2013-05-31 18:04:00,81.1,66.9,30.08,West,270,0.0,0.0,62,0.00,,,0.00,WUHU21623XXSP,2013-05-31 22:04:00,
2013-05-31 18:09:00,81.1,66.9,30.08,West,270,0.0,0.0,62,0.00,,,0.00,WUHU21623XXSP,2013-05-31 22:09:00,
2013-05-31 18:14:00,81.1,67.3,30.08,WNW,292,0.0,0.0,63,0.00,,,0.00,WUHU21623XXSP,2013-05-31 22:14:00,
2013-05-31 18:19:00,81.0,67.2,30.08,SSW,202,0.0,0.0,63,0.00,,,0.00,WUHU21623XXSP,2013-05-31 22:19:00,
2013-05-31 18:24:00,81.0,67.6,30.08,SSW,202,0.0,0.0,64,0.00,,,0.00,WUHU21623XXSP,2013-05-31 22:24:00,
2013-05-31 18:29:00,81.1,67.3,30.08,East,90,0.0,0.0,63,0.00,,,0.00,WUHU21623XXSP,2013-05-31 22:29:00,
2013-05-31 18:34:00,81.5,67.2,30.07,WNW,292,0.0,0.0,62,0.00,,,0.00,WUHU21623XXSP,2013-05-31 22:34:00,
2013-05-31 18:39:00,81.7,67.4,30.07,SSW,202,0.0,0.0,62,0.00,,,0.00,WUHU21623XXSP,2013-05-31 22:39:00,
2013-05-31 18:44:00,82.0,67.2,30.07,SSW,202,0.0,0.0,61,0.00,,,0.00,WUHU21623XXSP,2013-05-31 22:44:00,
2013-05-31 18:49:00,82.2,67.4,30.07,West,270,0.0,0.0,61,0.00,,,0.00,WUHU21623XXSP,2013-05-31 22:49:00,
2013-05-31 18:54:00,82.0,67.7,30.07,East,90,0.0,0.0,62,0.00,,,0.00,WUHU21623XXSP,2013-05-31 22:54:00,
2013-05-31 18:59:00,82.0,67.7,30.07,South,180,0.0,0.0,62,0.00,,,0.00,WUHU21623XXSP,2013-05-31 22:59:00,
2013-05-31 19:04:00,81.7,67.8,30.07,East,90,0.0,0.0,63,0.00,,,0.00,WUHU21623XXSP,2013-05-31 23:04:00,
2013-05-31 19:09:00,81.3,67.9,30.07,SSW,202,0.0,0.0,64,0.00,,,0.00,WUHU21623XXSP,2013-05-31 23:09:00,
2013-05-31 19:14:00,81.1,67.3,30.08,West,270,0.0,0.0,63,0.00,,,0.00,WUHU21623XXSP,2013-05-31 23:14:00,
2013-05-31 19:19:00,81.0,67.2,30.08,SSW,202,0.0,0.0,63,0.00,,,0.00,WUHU21623XXSP,2013-05-31 23:19:00,
2013-05-31 19:24:00,80.4,67.1,30.07,SSW,202,0.0,0.0,64,0.00,,,0.00,WUHU21623XXSP,2013-05-31 23:24:00,
2013-05-31 19:29:00,80.4,67.1,30.08,SSW,202,0.0,0.0,64,0.00,,,0.00,WUHU21623XXSP,2013-05-31 23:29:00,
2013-05-31 19:34:00,80.2,66.9,30.07,SSW,202,0.0,0.0,64,0.00,,,0.00,WUHU21623XXSP,2013-05-31 23:34:00,
2013-05-31 19:39:00,79.9,67.0,30.08,SSW,202,0.0,0.0,65,0.00,,,0.00,WUHU21623XXSP,2013-05-31 23:39:00,
2013-05-31 19:44:00,79.9,67.0,30.07,SSW,202,0.0,0.0,65,0.00,,,0.00,WUHU21623XXSP,2013-05-31 23:44:00,
2013-05-31 19:49:00,79.5,67.1,30.07,SSW,202,0.0,0.0,66,0.00,,,0.00,WUHU21623XXSP,2013-05-31 23:49:00,
2013-05-31 19:54:00,79.3,67.0,30.07,West,270,0.0,0.0,66,0.00,,,0.00,WUHU21623XXSP,2013-05-31 23:54:00,
2013-05-31 19:59:00,79.2,66.4,30.07,SSW,202,0.0,0.0,65,0.00,,,0.00,WUHU21623XXSP,2013-05-31 23:59:00,
2013-05-31 20:04:00,79.2,66.4,30.07,SSW,202,0.0,0.0,65,0.00,,,0.00,WUHU21623XXSP,2013-06-01 00:04:00,
2013-05-31 20:09:00,78.6,67.1,30.07,South,180,0.0,0.0,68,0.00,,,0.00,WUHU21623XXSP,2013-06-01 00:09:00,
2013-05-31 20:14:00,78.6,67.1,30.07,ESE,112,0.0,0.0,68,0.00,,,0.00,WUHU21623XXSP,2013-06-01 00:14:00,
2013-05-31 20:19:00,78.6,67.6,30.07,South,180,0.0,0.0,69,0.00,,,0.00,WUHU21623XXSP,2013-06-01 00:19:00,
2013-05-31 20:24:00,78.4,67.0,30.07,ESE,112,0.0,0.0,68,0.00,,,0.00,WUHU21623XXSP,2013-06-01 00:24:00,
2013-05-31 20:29:00,78.4,67.4,30.07,ESE,112,0.0,0.0,69,0.00,,,0.00,WUHU21623XXSP,2013-06-01 00:29:00,
2013-05-31 20:34:00,77.7,67.2,30.07,ESE,112,0.0,0.0,70,0.00,,,0.00,WUHU21623XXSP,2013-06-01 00:34:00,
2013-05-31 20:39:00,77.2,67.1,30.07,SSW,202,0.0,0.0,71,0.00,,,0.00,WUHU21623XXSP,2013-06-01 00:39:00,
2013-05-31 20:44:00,76.8,67.1,30.06,ESE,112,0.0,0.0,72,0.00,,,0.00,WUHU21623XXSP,2013-06-01 00:44:00,
2013-05-31 20:49:00,76.6,67.0,30.07,ESE,112,0.0,0.0,72,0.00,,,0.00,WUHU21623XXSP,2013-06-01 00:49:00,
2013-05-31 20:54:00,75.7,66.5,30.07,ESE,112,0.0,0.0,73,0.00,,,0.00,WUHU21623XXSP,2013-06-01 00:54:00,
2013-05-31 20:59:00,75.4,66.5,30.07,South,180,0.0,0.0,74,0.00,,,0.00,WUHU21623XXSP,2013-06-01 00:59:00,
2013-05-31 21:04:00,75.0,66.6,30.07,South,180,0.0,0.0,75,0.00,,,0.00,WUHU21623XXSP,2013-06-01 01:04:00,
2013-05-31 21:09:00,74.5,66.4,30.07,West,270,0.0,0.0,76,0.00,,,0.00,WUHU21623XXSP,2013-06-01 01:09:00,
2013-05-31 21:14:00,74.1,66.1,30.07,East,90,0.0,0.0,76,0.00,,,0.00,WUHU21623XXSP,2013-06-01 01:14:00,
2013-05-31 21:19:00,73.8,66.1,30.07,ESE,112,0.0,0.0,77,0.00,,,0.00,WUHU21623XXSP,2013-06-01 01:19:00,
2013-05-31 21:24:00,73.2,65.6,30.07,SSW,202,0.0,0.0,77,0.00,,,0.00,WUHU21623XXSP,2013-06-01 01:24:00,
2013-05-31 21:29:00,73.0,65.8,30.07,ESE,112,0.0,0.0,78,0.00,,,0.00,WUHU21623XXSP,2013-06-01 01:29:00,
2013-05-31 21:34:00,73.0,66.2,30.06,East,90,0.0,0.0,79,0.00,,,0.00,WUHU21623XXSP,2013-06-01 01:34:00,
2013-05-31 21:39:00,72.3,65.5,30.07,South,180,0.0,0.0,79,0.00,,,0.00,WUHU21623XXSP,2013-06-01 01:39:00,
2013-05-31 21:44:00,72.3,65.5,30.07,South,180,0.0,0.0,79,0.00,,,0.00,WUHU21623XXSP,2013-06-01 01:44:00,
2013-05-31 21:49:00,72.1,65.3,30.07,East,90,0.0,0.0,79,0.00,,,0.00,WUHU21623XXSP,2013-06-01 01:49:00,
2013-05-31 21:54:00,71.8,65.3,30.07,ESE,112,0.0,0.0,80,0.00,,,0.00,WUHU21623XXSP,2013-06-01 01:54:00,
2013-05-31 21:59:00,71.4,64.9,30.07,ESE,112,0.0,0.0,80,0.00,,,0.00,WUHU21623XXSP,2013-06-01 01:59:00,
2013-05-31 22:04:00,71.4,64.6,30.07,ESE,112,0.0,0.0,79,0.00,,,0.00,WUHU21623XXSP,2013-06-01 02:04:00,
2013-05-31 22:09:00,71.4,64.6,30.07,ESE,112,0.0,0.0,79,0.00,,,0.00,WUHU21623XXSP,2013-06-01 02:09:00,
2013-05-31 22:14:00,71.8,64.9,30.07,ESE,112,0.0,0.0,79,0.00,,,0.00,WUHU21623XXSP,2013-06-01 02:14:00,
2013-05-31 22:20:00,71.8,64.9,30.07,ESE,112,0.0,0.0,79,0.00,,,0.00,WUHU21623XXSP,2013-06-01 02:20:00,
2013-05-31 22:25:00,71.4,64.9,30.07,East,90,0.0,0.0,80,0.00,,,0.00,WUHU21623XXSP,2013-06-01 02:25:00,
2013-05-31 22:30:00,71.4,64.9,30.07,ESE,112,0.0,0.0,80,0.00,,,0.00,WUHU21623XXSP,2013-06-01 02:30:00,
2013-05-31 22:35:00,71.2,64.8,30.07,ESE,112,0.0,0.0,80,0.00,,,0.00,WUHU21623XXSP,2013-06-01 02:35:00,
2013-05-31 22:40:00,70.7,64.6,30.07,ESE,112,0.0,0.0,81,0.00,,,0.00,WUHU21623XXSP,2013-06-01 02:40:00,
2013-05-31 22:45:00,70.5,64.4,30.07,South,180,0.0,0.0,81,0.00,,,0.00,WUHU21623XXSP,2013-06-01 02:45:00,
2013-05-31 22:50:00,70.2,64.0,30.07,SSW,202,0.0,0.0,81,0.00,,,0.00,WUHU21623XXSP,2013-06-01 02:50:00,
2013-05-31 22:55:00,70.0,63.8,30.07,South,180,0.0,0.0,81,0.00,,,0.00,WUHU21623XXSP,2013-06-01 02:55:00,
2013-05-31 23:00:00,69.8,63.7,30.07,East,90,0.0,0.0,81,0.00,,,0.00,WUHU21623XXSP,2013-06-01 03:00:00,
2013-05-31 23:05:00,69.6,63.8,30.07,West,270,0.0,0.0,82,0.00,,,0.00,WUHU21623XXSP,2013-06-01 03:05:00,
2013-05-31 23:10:00,69.4,63.7,30.07,South,180,0.0,0.0,82,0.00,,,0.00,WUHU21623XXSP,2013-06-01 03:10:00,
2013-05-31 23:15:00,69.1,63.3,30.07,South,180,0.0,0.0,82,0.00,,,0.00,WUHU21623XXSP,2013-06-01 03:15:00,
2013-05-31 23:20:00,68.9,63.2,30.07,ESE,112,0.0,0.0,82,0.00,,,0.00,WUHU21623XXSP,2013-06-01 03:20:00,
2013-05-31 23:25:00,68.7,63.3,30.07,SSW,202,0.0,0.0,83,0.00,,,0.00,WUHU21623XXSP,2013-06-01 03:25:00,
2013-05-31 23:30:00,68.5,63.2,30.07,South,180,0.0,0.0,83,0.00,,,0.00,WUHU21623XXSP,2013-06-01 03:30:00,
2013-05-31 23:35:00,68.5,63.2,30.07,South,180,0.0,0.0,83,0.00,,,0.00,WUHU21623XXSP,2013-06-01 03:35:00,
2013-05-31 23:40:00,68.4,63.0,30.07,ESE,112,0.0,0.0,83,0.00,,,0.00,WUHU21623XXSP,2013-06-01 03:40:00,
2013-05-31 23:45:00,68.2,62.8,30.07,South,180,0.0,0.0,83,0.00,,,0.00,WUHU21623XXSP,2013-06-01 03:45:00,
2013-05-31 23:50:00,67.8,62.8,30.07,South,180,0.0,0.0,84,0.00,,,0.00,WUHU21623XXSP,2013-06-01 03:50:00,
2013-05-31 23:55:00,67.8,62.8,30.07,South,180,0.0,0.0,84,0.00,,,0.00,WUHU21623XXSP,2013-06-01 03:55:00,